[Date Prev][Date Next][Thread Prev][Thread Next][Date Index][Thread Index]

[jamsat-news:1621] jas2info #251



========================   最新情報   ==============================

        Last updated :17Nov2001  13:00(JST)   #251

==================================================================
   
  1)アマチュア通信衛星情報、FOシリーズの軌道要素、テレメトリ、QSOの
   状況等をまとめてみました.
   
   FO−29の2001年11月17日(土)の9:10(JST)のパスでは
  JARLのホームページのとうりアナログ運用でした。 今日までの観測した
  テレメトリーと最終の分析結果を報告しておきます。

AS25931C   17Nov2001
09:10-09:18(JST)
FREQ.  435.797-.789MHz

HI HI AE C7 88 55 00 D4 93 43 09 62 59 83 7F 63 9D 99 B0 51 93 90 91 91 91 
HI HI AE C7 88 55 00 D4 93 43 09 62 57 85 7A 63 9D 99 B0 50 93 8F 90 91 91 
HI HI AE C7 88 55 00 D4 93 43 09 62 55 92 79 63 9D 99 B0 7E 93 8F 90 91 91 
HI HI AE C7 88 55 00 D4 93 43 09 62 53 9D 78 64 9E 99 B0 75 93 8F 90 91 91 
HI HI AE C7 88 55 00 D4 93 43 09 62 51       64 9E 99 B0 72 92 8F 90 91 91 
HI HI AE C7 88 55 00 D4 93 43 09 62 50 A7 75 64 9E 99 B0 70 92 8F 90 91 91 
HI HI AE C7 88 55 00 D4 93 43 09 62 4F B2 73 63 9E 99 B0 6D 92 8F 90 91 91 
HI HI AE C7 88 55 00 D4 93 43 09 62 4D B5 6F 63 9E 99 B0 7C 92 8F 90 91 91 
HI HI AE C7 88 55 00 D4 93 43 09 62 4B B4 6B 64 9E 99 B0 64 92 8F 90 91 91 
   
AS25909C  15Nov2001
18:42-18:55(JST)
FREQ.  435.799-.787MHz

HI HI AE 07 88 55 00 D4 82 61 09 48 66 66 00 88 88 87 93 78 97 90 91 97 93 
HI HI AE 07 88 55 00 D4 82 61 09 48 5F 62 00 88 88 87 93 6F 97 90 91 98 93 
HI HI AE 07 88 55 00 D4 82 61 09 48 58 5F 00 87 88 87 92 8C 98 90 92 98 93 
HI HI AE 07 88 55 00 D4 82 61 09 48 51 5E 05 83 88 87 92 87 98 90 92 98 93 
HI HI AE 07 88 55 00 D4 82 61 09 48 4C 5F 35 6B 8A 88 95 72 98 91 92 98 93 
HI HI AE 07 88 55 00 D4 82 61 09 48 47 61 6F 4F 8E 8B 98 7A 98 91 93 98 93 
HI HI AE 07 88 55 00 D4 82 61 09 48 43 62 6E 50 8E 8D 9A 93 98 91 93 99 93 
HI HI AE 07 88 55 00 D4 82 61 09 48 41 64 6E 51 91 8E 9B 6C 98 92 93 99 93 
HI HI AE 07 88 55 00 D4 82 61 09 48 3F 67 6C 51 92 8F 9D 97 99 92 93 99 93
HI HI AE 07 88 55 00 D4 82 61 09 48 3F 6A 6B 53 92 90 9D 77 99 92 94 99 93 
HI HI AE C7 88 55 00 D4 82 61 09 48 41 6C 6B 5F 91 8F B0 90 99 92 94 99 93 
HI HI AE C7 88 55 00 D4 82 61 09 48 42 6F 6B 5F 91 8F B0 70 99 92 94 99 93 
HI HI AE C7 88 55 00 D4 82 61 09 48 46 72 6C 5F 91 8F B0 85 99 92 94 99 93 
HI HI AE C7 88 55 00 D4 82 61 09 48 4B 75 6D 5F 91 8F B0 79 99 92 94 99 93 
HI HI AE C7 88 55 00 D4 82 61 09 48 50 77 6E 5F 91 8F B0 5E 99 93 94 9A 93 
HI HI AE C7 88 55 00 D4 82 61 09 48 56 79 6D 5F 91 8F B0 7E 99 93 94 9A 93 
HI HI AE C7 88 55 00 D4 82 61 09 48 5C 7A 6E 5F 91 8F B0 72 8A 83 95 9A 93 
HI HI AE C7 88 55 00 D4 82 61 09 48   

AS25896C1   14Nov2001
19:35-19:51(JST)
FREQ. 435.801-.786MHz

HI HI AE 07 88 55 00 D4 00 00 09 00 A3 76 00 89 89 88 94 77 8F 92 92 8D 8F 
HI HI AE 07 88 55 00 D4 00 00 09 00 A0 81 00 88 89 88 94 7A 8F 92 92 8E 8F 
HI HI AE 07 88 55 00 D4 00 00 09 00 9B 8C 00 8A 89 88 93 9B 90 92 92 8E 8F 
HI HI AE 07 88 55 00 D4 00 00 09 00 93 96 00 89 88 87 93 7A 90 92 93 8E 8F 
HI HI AE 07 88 55 00 D4 00 63 09 00 89 9E 00 89 88 87 93 76 90 93 93 8E 8F 
HI HI AE 07 88 55 00 D4 00 00 09 00 77 88          87 93 70 90 94 93 8E 8F 
HI HI AE 07 88 55 00 D4 00 00 09 00 5A A1          8C 99 76 91 94 93 8F 8F 
HI HI AE 07 88 55 00 D4 00 00 09 00 3F             8E B0 7B 92 94 94 90 8F 
HI HI AE C7 88 55 00 D4 00 00 09 00 3F 74 74 5F 90 8E B0 95 92 94 94 90 8F 
HI HI AE C7 88 55 00 D4 00 00 09 00 3F 6A 71 5F 91 8E B0 63 92 95 95 90 8F 
HI HI AE C7 88 55 00 D4 00 00 09 00 3F 63 6E 5F 91 8F B0 69 92 95 95 90 8F 
HI HI AE C7 88 55 00 D4 00 00 09 00 41 5E 6B 5F 91 8F B0 6F 92 95 95 90 8F 
HI HI AE C7 88 55 00 D4 00 00 09 00 42 5B 65 5F 91 8F B0 88 92 95 95 90 8F 
HI HI AE C7 88 55 00 D4 00 00 09 00 44 5B 62 5F 91 8F B0 6F 92 95 95 90 8F 
HI HI AE C7 88 55 00 D4 00 00 09 00 45 5D 5F 5F 91 8F B0 6F 93 95 95 91 8F 
HI HI AE C7 88 55 00 D4 00 00 09 00 44 5F 5A 5F 91 8F B0 6F 93 95 95 91 8F
 
AS25895C  14Nov2001
17:57-18:02(JST)
FREQ. 435.792-.790MHz

HI HI AE 07 88 55 00 D4 00 00 09 00          56 8F 8D 9A 70 92 91 8F 8F 8D 
HI HI AE 07 88 55 00 D4 00 00 09 00 40 6E 61 55 91 8E 9B 5A 92 91 8F 8F 8D 
HI HI AE 07 88 55 00 D4 00 00 09 01 41 65 65 55 91 8F 9C 5D 92 91 8F 90 8E 
HI HI AE 07 88 55 00 D4 00 00 09 00 43 5C 67 5F 91 8E B0 8A 93 91 90 90 8E 
HI HI AE C7 88 55 00 D4 00 00 09 00 48 55 6D 5F 91 8E B0 6D 93 91 90 90 8E 
HI HI AE C7 88 55 00 D4 00 00 09 00 4C 4F 72 5F 91 8F B0 79 93 91 90 90 8E 
HI HI AE C7 88 55 00 D4 00 00 09 00 51 4A 75 5F 91 8F B0 7F 93 91 90 90 8E 
 
AS25882C1     13Nov2001
18:49-19:00(JST)
FREQ. 435.795-.787MHz

HI HI AE 07 88 55 00 D4 5E D1 09 27 71 7E 6F 8E 89 87 93 77 92 8E 93 95 8F 
HI HI AE 07 88 55 00 D4 5E D1 09 27 6C 7C 27 7  89 86 94 7B 93 8F 93 95 8F 
HI HI AE 07 Z8 55 00 D4 5E D1 09 27 67 80 6F 5F 89 8B 98 71 93 8F 94 95 8F 
HI HI AE 07 88 55 00 D4 5E D1 09 27 63 81 6E 55 80 8D 9I I9 93 8U 94 95 8F 
HI HI AE 07 88 55 00 D4 5E D1 09 27 5E 82 6E 53 90 8E 9B 71 93 8F 94 95 8F 
HI HI AE 07 88 55 00 D4 5E D1 09 27 5A 83 71 4F 92 8F 9D 58 93 90 94 95 90 
HI HI AE 07 88 55 00 D4 5E D1 09 27 56 81 73 5F 91 8E B0 6F 93 90 94 95 8F 
HI HI AE C7 88 55 00 D4 5E D1 09 27 52 81 72 5F 90 8E B0 77 94 90 94 96 8F 
HI HI AE C7 88 55 00 D4 5E D1 09 27          5F 90 8E B0 8D 94 90 94 96 90 
HI HI AE C7 88 55 00 D4 5E D1 09 27          5F 91 8F B0 76 94 90 94 96 90 
HI HI AE C7 88 55 00 D4 5E D1 09 27 49 7D 68 5F 91 8F B0 76 94 90 94 96 90 
HI HI AE C7 88 55 00 D4 5E D1 09 27 47 7B 61 5F 90 8F B0 8C 94 90 94 96 8F 
HI HI AE C7 88 55 00 D4 5E D1 09 27 44 78 56 5F 91 8F AF B1 95 91 94 96 8F 
HI HI AE C7 88 55 00 D4 5E D1 09 27 42 76 54 5F 91 8F AF 88 95 91 94 96 90 
HI HI AE C7 88 55 00 D4 5E D1 09 27 41 74 53 60 91 8F AE 76 95 91 94 96 90  
 
------------------------ FO-29の軌道要素 ------------------------------        
 
  ■ 軌道要素1:「jamsat−keps:1051」より         
          SB KEPS @ AMSAT  $ORB01319.N
          2Line Orbital Elements 01319.AMSAT

HR AMSAT ORBITAL ELEMENTS FOR AMATEUR SATELLITES IN NASA FORMAT
FROM WA5QGD FORT WORTH,TX November 15, 2001
SEND SUBSCRIBE/UNSUBSCRIBE TO majordomo@amsat.org ONLY
BID: ORB01319.N

 DECODE 2-LINE ELSETS WITH THE FOLLOWING KEY:
 1 AAAAAU 00  0  0 BBBBB.BBBBBBBB  .CCCCCCCC  00000-0  00000-0 0  DDDZ
 2 AAAAA EEE.EEEE FFF.FFFF GGGGGGG HHH.HHHH III.IIII JJ.JJJJJJJJKKKKKZ
 KEY: A-CATALOGNUM B-EPOCHTIME C-DECAY D-ELSETNUM E-INCLINATION F-RAAN
 G-ECCENTRICITY H-ARGPERIGEE I-MNANOM J-MNMOTION K-ORBITNUM Z-CHECKSUM

FO-29
1 24278U 96046B   01318.63632065  .00000158  00000-0  19893-3 0 04646
2 24278 098.5219 163.2856 0350416 331.9338 026.3295 13.52795488258980

 ■ 軌道要素2:「jamsat−keps:1052」より
        SB KEPS @ AMSAT  $ORB01319.O
        Orbital Elements  01319.OSCAR

HR AMSAT ORBITAL ELEMENTS FOR OSCAR SATELLITES
FROM WA5QGD FORT WORTH,TX November 15, 2001
SEND SUBSCRIBE/UNSUBSCRIBE TO majordomo@amsat.org ONLY
BID: ORB01319.O
TO ALL RADIO AMATEURS BT

Satellite: FO-29
Catalog number: 24278
Epoch time:      01318.63632065
Element set:    0464
Inclination:      098.5219 deg
RA of node:       163.2856 deg
Eccentricity:    0.0350416
Arg of perigee:   331.9338 deg
Mean anomaly:     026.3295 deg
Mean motion:   13.52795488 rev/day
Decay rate:       1.58e-06 rev/day^2
Epoch rev:           25898
Checksum:              341

-------------------  FO-29(JAS-2)のテレメトリに関する情報  ---------------------- 
 
2)上記11月17日(土)のテレメトリの最終行を分析しておきます.

AS25931C   17Nov2001
09:10-09:18(JST)
FREQ.  435.797-.789MHz

HI HI AE C7 88 55 00 D4 93 43 09 62 4B B4 6B 64 9E 99 B0 64 92 8F 90 91 91 

テレメトリ   内 容         換算算値 単 位
3C	磁気センサーZ軸=	36764.7	[nT]
3D	磁気センサX軸	=	88235.3	[nT]
4A	太陽電池発生電流=	 1049.0	[mA]
4B	B充放電電流	=	  -40.0	[mA]
4C	B端子電圧	=	   17.0	[V]
4D	B中間端子電圧	=	    7.4	[V]
5A	バス電圧	=	   17.3	[V]
5B	JTA送信電力	=	  551.9	[mW]
5C 	構体温度1	=	   25.2	[℃]
5D	構体温度2	=	   26.3	[℃]
6A	構体温度3	=	   26.0	[℃]
6B	構体温度4	=	   25.6	[℃]
6C	Bセル温度	=	   25.6	[℃]

 ========================== FO-29(ふじ3号)のQSO情報等 ======================
   
 3)[jamsat-bb:

 ===============================================================================
   4)JARL のホームページに運用予定が記載されていましたのでご紹介します.
       ( http://www.jarl.or.jp/Japanese/3_Fuji/new/uy.htm )
       
      ふじ3号(JAS−2)の運用 

        *** 運用予定について ***

 10月1日(月) 〜 12月3日(月)アナログ系運用 

  *なお,運用予定は都合により,変更することがありますので,あらかじめご了承願います。

 照会先 : lab@jarl.or.jp

 最新の情報はテレホンサービス(03−3942−1000)をお聞きください。  
 以後の運用につきましては平成13年12月上旬にお知らせいたします。 
     
-----------------------    FO−20(JAS-1b)道要素   -------------------------
  5)
  ■ 軌道要素1 :出典はFO-29「ふじ3号」に同じ.
  
FO-20
1 20480U 90013C   01318.63794997 -.00000011  00000-0  53006-4 0 03933
2 20480 099.0400 358.8191 0540570 328.5635 028.4177 12.83301392551390
 
  ■ 軌道要素2 :出典はFO−29「ふじ3号」に同じ.
               
Satellite: FO-20
Catalog number: 20480
Epoch time:      01318.63794997
Element set:    0393
Inclination:      099.0400 deg
RA of node:       358.8191 deg
Eccentricity:    0.0540570
Arg of perigee:   328.5635 deg
Mean anomaly:     028.4177 deg
Mean motion:   12.83301392 rev/day
Decay rate:       -1.1e-07 rev/day^2
Epoch rev:           55139
Checksum:              306

 --------------------------------------------------------------------------------
 
         ■ ふじ2号/FO−20/JAS-1b ■      
            
          「ふじ2号」 現況                                                                                  
             
   JAS-1b(ふじ2号)のCWテレメトリ信号に,1997年10月12日12時(JST)の
 日本上空通過時,3桁の数字が繰り返されるはずが3個の長音の繰り返しとなっているという
 異常が発見されました。この不具合は次の通過時からは回復していましたが13日15時20分の
 通過時に再び観測されました。現在はA0の送信が続いています。衛星のアナログ系中継モード
 動作は異常が無く,正常時のテレメトリ内容からは衛星の動作に異常は認められません。従って,
 直ちに衛星のミッションに影響することは無いと予想されますので,当面はアナログ系中継
 モードを継続します。衛星は既に打ち上げてから7年8ヶ月を経ておりますので,今後は監視を
 強化する予定です。アマチュア各位のレポートをお待ちします。
 -------------------------------------------------------------------------------- 
  1997年10月14日 00時35分 確認のテレメトリ音 151 KB (A0) 
  1997年10月14日 11時10分 確認のテレメトリ音 216 KB (異常キーイング) 

  以上 JARLのホ−ムページの http://www.jarl.or.jp/Japanese/3_Fuji/new/fuji.htm

===================== FO-20 ふじ2号 のテレメトリ観測結果 ====================

  10月27日(土)11:33(JST)の観測結果ではテレメトリは、以前観測した単一周波数の
ドップラー効果で周波数がずれていくのみの状態でした。
                                         
   =============   JAS-2 (ふじ3号)と現在までの情報   ===========
  
  A.電話によるふじ3号の運用情報
      社団法人日本アマチュア連盟によるサービス
           TEL .   03− 3942 − 1000
  B.アマチュア無線FAXサービス
      JARLによるふじ3号の軌道情報(オービットカレンダー)
         FAX No.  03− 3233 −0055
  C.WWWブラウザで情報を簡単に見れる人のためにJAS−2
     ふじ3号の衛星としての運用されるまでの名前)の概要、打ち上げ
     までの状況、運用中における状況を説明したホームページを紹介し
     ておきます.
     社団法人日本アマチュア無線連盟(JARL)のホームページ

          http://www.jarl.or.jp/Japanese/3_Fuji/jasmenu.htm
 
     宇宙開発事業団(NASDA)ホームページ 
          http://www.nasda.go.jp/
         打上げ衛星 :地球観測プラットフォーム技術衛星(ADEOS) 
                       アマチュア衛星3号(JAS-2)
          http://spaceboy.nasda.go.jp/note/eisei/j/Eis15h_j.html#Eis15h_01_j
     http://spaceboy.nasda.go.jp/note/eisei/j/Eis15i_j.html        

  D.JAMSATによる軌道情報の活用
        JAMSATのホームページまたはjamsat−kepsの軌道要素より
      衛星の軌道情報を得る.
     JAMSATホームページ
               URL    http://www.jamsat.or.jp
       上記ホームページでは各地で行われるアマチュア通信衛星に関する
      ミューティングのお知らせや世界のアマチュア衛星に関する情報が
      満載されています.
 ========================================================================  
     JAMSATのメンバーのご協力によりJH6MME(高山 秀造)が
    執筆・編集を担当しております.ご指摘の意見、疑問やこのようにしたら
    というアイデアがありましたら小さなことでもかまいませんので気軽に下
    記アドレスまでご連絡ください.jamsat−newsからjas2
    infoへの転載をJH4PHW局坂井さんに担当して頂いております.  
                  E-mail : jh6mme@jamsat.or.jp : jh4phw@jamsat.or.jp
 ===============================   END  ===============================